Simultaneous Nadir Overpasses (SNOs) Predictions

Prediction of SNOs between GOES-14 and NPP Satellite Orbit:

Table of predicted SNOs for the next 14.0 days since TLE Epoch: 3/27/2021
Index Date Time (GOES-14) GOES-14 Lat,Lon NPP Lat,Lon Distance(km) Time Diff (sec)
1 03/27/2021 08:23:20 0.12,-104.38 0.27,-104.97 68.78 80
2 03/28/2021 08:07:16 0.12,-104.38 -0.77,-100.45 448.29 80
3 03/29/2021 20:29:11 -0.12,-104.31 -0.45,-105.74 163.26 80
4 03/30/2021 20:07:46 -0.12,-104.30 0.59,-101.22 352.12 80
5 04/01/2021 08:29:34 0.12,-104.35 0.57,-106.49 242.21 80
6 04/02/2021 08:13:28 0.12,-104.36 -0.41,-101.95 274.65 80
7 04/03/2021 20:35:24 -0.13,-104.31 -0.81,-107.24 334.64 80
8 04/04/2021 20:13:59 -0.13,-104.30 0.24,-102.71 180.63 80
9 04/06/2021 08:35:45 0.14,-104.32 0.99,-107.97 416.37 80
10 04/07/2021 08:19:41 0.14,-104.33 -0.06,-103.44 100.76 80
11 04/09/2021 20:20:12 -0.14,-104.30 -0.11,-104.21 10.73 80
